SCP
0 0 0 0 0 0 0 0 0 0 0 0 0 0 0 0 0 0 0 0 0 0 0 0 0 0 0 0 0 0 0 0 0 0 0 0 0 0 0 0 0 0 0
0 0 0 0 0 0 0 0 0 0 0 0 0 0 0 0 0 0 0 0 0 0 0 0 0 0 0 0 0 0 0 0 0 0 0 0 0 0 0 0 0 0 0
0 0 0 0 0 0 0 0 0 0 0 0 0 0 0 0 0 0 0 0 0 0 0 0 0 0 0 0 0 0 0 0 0 0 0 0 0 0 0 0 0 0 0
0 0 0 0 0 0 0 0 0 0 0 0 0 0 0 0 0 0 0 0 0 0 0 0 0 0 0 0 0 0 0 0 0 0 0 0 0 0 0 0 0 0 -0
0 0 0 0 0 0 0 0 0 0 0 0 0 0 0 0 0 0 0 0 0 0 0 0 0 0 0 0 0 0 0 0 0 0 0 0 0 0 0 0 0 0 0
0 0 0 0 0 0 0 0 0 0 0 0 0 0 0 0 0 0 0 0 0 0 0 0 0 0 0 0 0 0 0 0 0 0 0 0 0 0 0 0 0 0 0
0 0 0 0 0 0 0 0 0 0 0 0 0 0 0 0 0 0 0 0 0 0 0 0 0 0 0 0 0 0 0 0 0 0 0 0 0 0 0 0 0 0 0
0 0 0 0 0 0 0 0 0 0 0 0 0 0 0 0 0 0 0 0 0 0 0 0 0 0 0 0 0 0 0 0 0 0 0 0 0 0 0 0 0 0 0
0 0 0 0 0 0 0 0 0 0 0 0 0 0 0 0 0 0 0 0 0 0 0 0 0 0 0 0 0 0 0 0 0 0 0 0 0 0 0 0 0 0 0
0 0 0 0 0 0 0 0 0 0 0 0 0 0 0 0 0 0 0 0 0 0 0 0 0 0 0 0 0 0 0 0 0 0 0 0 0 0 0 0 0 0 0
0 0 0 0 0 0 0 0 0 0 0 0 0 0 0 0 0 0 0 0 0 0 0 0 0 0 0 0 0 0 0 0 0 0 0 0 0 0 0 0 0 0 0
0 0 0 0 0 0 0 0 0 0 0 0 0 0 0 0 0 0 0 0 0 0 0 0 0 0 0 0 0 0 0 0 0 0 0 0 0 0 0 0 0 0 0
0 0 0 0 0 0 0 0 0 0 0 0 0 0 0 0 0 0 0 0 0 0 0 0 0 0 0 0 0 0 0 0 0 0 0 0 0 0 0 0 0 0 0
0 0 0 0 0 0 0 0 0 0 0 0 0 0 0 0 0 0 0 0 0 0 0 0 0 0 0 0 0 0 0 0 0 0 0 0 0 0 0 0 0 0 0
0 0 0 0 0 0 0 0 0 0 0 0 0 0 0 0 0 0 0 0 0 0 0 0 0 0 0 0 0 0 0 0 0 0 0 0 0 0 0 0 0 0 0
0 0 0 0 0 0 0 0 0 0 0 0 0 0 0 0 0 0 0 0 0 0 0 0 0 0 0 0 0 0 0 0 0 0 0 0 0 0 0 0 0 0 0
0 0 0 0 0 0 0 0 0 0 0 0 0 0 0 0 0 0 0 0 0 0 0 0 0 0 0 0 0 0 0 0 0 0 0 0 0 0 0 0 0 0 0
0 0 0 0 0 0 0 0 0 0 0 0 0 0 0 0 0 0 0 0 0 0 0 0 0 0 0 0 0 0 0 0 0 0 0 0 0 0 0 0 0 0 0
0 0 0 0 0 0 0 0 0 0 0 0 0 0 0 0 0 0 0 0 0 0 0 0 0 0 0 0 0 0 0 0 0 0 0 0 0 0 0 0 0 0 0
0 0 0 0 0 0 0 0 0 0 0 0 0 0 0 0 0 0 0 0 0 0 0 0 0 0 0 0 0 0 0 0 0 0 0 0 0 0 0 0 0 0 0
0 0 0 0 0 0 0 0 0 0 0 0 0 0 0 0 0 0 0 0 0 0 0 0 0 0 0 0 0 0 0 0 0 0 0 0 0 0 0 0 0 0 0
0 0 0 0 0 0 0 0 0 0 0 0 0 0 0 0 0 0 0 0 0 0 0 0 0 0 0 0 0 0 0 0 0 0 0 0 0 0 0 0 0 0 0
0 0 0 0 0 0 0 0 0 0 0 0 0 0 0 0 0 0 0 0 0 0 0 0 0 0 0 0 0 0 0 0 0 0 0 0 0 0 0 0 0 0 0
0 0 0 0 0 0 0 0 0 0 0 0 0 0 0 0 0 0 0 0 0 0 0 0 0 0 0 0 0 0 0 0 0 0 0 0 0 0 0 0 0 0 0
0 0 0 0 0 0 0 0 0 0 0 0 0 0 0 0 0 0 0 0 0 0 0 0 0 0 0 0 0 0 0 0 0 0 0 0 0 0 0 0 0 0 0
0 0 0 0 0 0 0 0 0 0 0 0 0 0 0 0 0 0 0 0 0 0 0 0 0 0 0 0 0 0 0 0 0 0 0 0 0 0 0 0 0 0 0
Wind_Speed
2 2 3 3 3 3 4 4 4 4 4 4 4 4 4 4 4 4 4 4 4 4 3 4 4 3 3 2 2 2 2 2 3 2 1 1 2 2 2 2 2 2 3
2 2 2 3 3 3 4 4 4 4 4 5 4 4 4 4 4 5 5 4 5 5 5 4 4 3 4 3 3 3 3 3 3 3 2 2 3 3 2 2 2 2 2
2 2 2 2 2 4 4 4 4 5 5 4 5 5 5 5 5 5 5 5 6 6 6 6 5 5 4 4 4 4 3 2 2 3 3 2 1 1 2 2 2 2 3
2 2 3 3 3 3 3 4 4 5 5 5 5 5 5 5 5 5 5 5 5 5 5 5 5 6 6 6 5 5 4 3 3 3 3 2 2 2 2 2 2 2 3
2 3 3 3 3 2 2 3 4 4 5 5 5 5 5 5 5 6 6 6 6 6 5 5 6 7 7 6 5 5 5 4 4 3 3 2 3 2 3 2 3 2 2
3 3 3 3 2 3 3 3 3 4 4 4 5 5 5 5 7 9 7 5 5 6 6 5 6 7 8 9 9 9 8 7 6 5 4 5 5 4 3 3 2 2 3
3 3 3 3 3 3 3 3 3 4 4 5 5 5 6 7 9 9 9 5 5 6 6 6 5 6 7 6 7 9 9 11 10 7 6 7 6 5 5 4 4 4 4
3 3 3 3 3 3 3 3 3 3 4 5 5 5 5 6 9 9 9 6 5 6 6 7 7 6 7 6 5 6 6 6 7 6 6 6 5 5 6 5 5 3 2
3 3 3 3 3 3 3 3 3 3 3 4 4 5 5 5 8 9 8 4 4 6 6 6 7 7 10 10 6 6 6 5 6 8 8 7 8 8 6 3 3 3 3
4 4 3 3 3 4 4 3 3 3 3 3 3 4 5 5 7 8 8 4 5 5 4 5 9 9 10 10 7 7 7 6 4 4 4 5 5 6 8 6 5 4 3
3 3 3 3 3 3 3 3 2 2 2 3 3 4 4 5 7 9 9 5 5 4 4 4 5 9 10 11 9 7 8 5 4 4 3 2 2 3 3 3 3 4 4
2 2 2 3 3 2 2 2 2 2 3 3 3 3 3 4 5 7 9 8 6 4 4 4 4 8 9 10 8 8 8 5 3 3 3 3 3 3 3 2 2 3 3
2 2 2 2 2 2 2 2 2 2 3 3 3 3 3 3 4 7 9 9 8 4 4 6 6 7 7 6 7 7 5 3 3 3 4 4 3 3 2 2 1 2 1
2 3 2 2 2 2 2 2 2 3 3 3 3 4 3 3 3 3 4 4 5 4 3 4 5 5 4 2 2 2 2 3 3 3 3 3 2 2 3 3 2 2 1
2 3 3 2 2 2 2 2 3 4 4 4 4 3 3 4 5 6 4 3 3 3 2 2 2 1 2 1 1 1 1 2 2 2 2 2 2 3 2 2 2 2 2
2 3 2 2 2 2 2 2 4 4 6 7 7 6 4 6 7 7 7 6 5 4 2 2 2 3 3 3 2 2 2 2 2 2 2 2 2 3 2 2 2 2 2
3 3 2 2 2 2 2 2 2 3 4 5 6 6 5 5 5 5 5 5 5 4 2 2 3 3 3 3 3 3 2 2 2 2 2 2 2 2 2 2 2 2 2
3 3 3 2 2 2 2 2 2 2 2 3 4 4 4 4 4 4 3 2 2 2 2 3 3 3 3 3 3 3 2 2 2 2 2 2 2 2 2 2 2 3 2
2 2 2 2 2 2 2 2 2 2 2 2 2 3 4 3 3 3 1 1 1 2 2 2 3 3 3 3 3 3 3 3 3 2 2 2 2 2 2 2 2 4 3
2 4 3 2 1 1 1 1 1 1 2 2 2 2 2 2 1 1 1 0 1 1 1 2 2 2 2 3 3 2 2 2 3 3 3 2 2 2 3 3 3 3 3
2 2 4 2 1 1 1 1 1 1 1 2 2 3 4 1 1 1 1 1 1 1 1 1 1 1 2 2 2 3 3 2 2 2 2 2 2 2 2 2 2 2 2
1 1 2 2 2 2 1 1 1 1 2 2 2 2 4 2 1 1 1 1 1 1 1 1 1 1 2 2 2 3 3 3 3 2 2 2 2 2 2 2 2 2 2
1 1 1 2 1 2 2 2 2 1 1 2 2 2 2 2 1 1 1 2 1 1 1 1 1 1 1 1 1 2 3 3 3 3 3 2 2 2 2 3 3 3 2
1 1 1 1 1 1 1 1 1 1 1 2 2 2 2 1 1 2 2 2 1 1 1 1 1 1 1 1 1 1 2 2 2 3 4 4 3 2 2 2 2 3 3
1 1 1 1 1 1 1 1 1 1 1 2 2 1 1 1 2 2 2 2 2 1 1 1 1 0 1 2 2 2 3 4 3 2 3 3 3 3 3 3 3 2 2
0 1 1 1 1 1 1 1 1 1 1 1 1 1 1 2 2 2 2 2 1 2 2 1 1 1 1 1 2 4 4 4 4 4 3 3 4 3 3 3 4 3 3
Wind_Direction
236 225 218 214 210 198 197 201 204 207 203 203 209 208 201 199 192 191 201 202 197 199 197 196 207 204 196 195 188 190 209 196 221 249 237 221 202 219 244 245 243 239 254
247 233 231 224 209 206 208 208 204 208 210 209 207 206 207 205 197 198 201 208 203 203 206 204 211 205 202 198 195 201 207 209 204 232 245 225 224 214 218 240 256 252 249
251 233 236 237 222 220 219 215 208 207 209 210 207 207 211 211 206 208 205 212 210 209 207 206 208 201 212 208 204 204 207 214 209 211 230 232 244 218 215 249 254 259 262
262 242 240 241 235 233 227 218 214 209 209 212 216 215 216 218 215 213 212 216 215 215 213 212 209 206 210 207 209 207 203 204 203 209 220 221 231 228 204 223 254 248 261
264 257 254 253 243 233 232 229 221 217 218 215 216 221 219 218 216 214 213 216 213 214 215 216 218 222 226 220 217 204 199 204 203 211 221 220 219 212 219 217 233 251 266
262 262 265 255 245 238 237 234 230 222 220 217 219 219 221 227 232 232 227 219 215 214 218 222 226 228 233 234 235 226 214 208 208 211 220 225 225 219 212 216 225 241 262
267 269 265 254 246 245 246 233 235 236 227 223 226 221 222 227 233 233 232 229 221 218 219 221 229 231 233 224 231 233 230 230 224 216 219 224 223 213 204 212 220 232 245
265 267 267 258 251 253 247 241 238 238 235 232 228 224 226 232 235 236 234 228 224 224 222 221 223 226 225 220 222 227 230 233 232 226 222 224 223 212 206 210 213 238 275
266 265 265 259 254 249 246 247 245 237 238 239 238 222 224 237 238 238 236 222 226 227 225 223 222 222 230 229 223 223 231 240 245 237 235 236 232 226 209 179 191 209 252
272 271 269 258 248 243 245 249 246 238 238 240 251 239 229 235 239 237 234 222 225 230 229 228 233 232 231 228 218 214 224 229 219 228 232 238 233 224 220 208 200 210 232
282 280 276 268 258 250 248 247 240 244 240 238 248 254 244 241 244 241 237 226 220 225 230 231 234 239 237 234 228 219 228 224 204 203 209 216 217 211 210 209 207 211 220
290 287 285 282 275 266 248 254 245 231 237 240 243 257 254 251 250 247 244 243 236 225 231 231 233 239 237 236 234 227 229 221 188 189 206 219 220 216 211 205 210 220 226
320 301 293 292 286 278 259 254 250 235 234 242 240 248 256 246 247 253 249 250 249 234 228 234 237 241 242 238 237 227 215 194 183 197 211 224 221 205 181 180 188 192 208
315 309 304 294 289 279 267 256 244 232 234 238 241 245 249 250 247 245 239 244 247 239 224 232 240 250 252 246 234 221 200 192 194 204 206 210 196 183 189 194 200 190 206
312 304 303 295 284 277 274 260 257 244 239 239 237 238 238 245 248 254 247 236 223 221 204 198 194 197 202 197 207 202 175 182 200 197 197 199 194 188 194 190 186 188 210
305 303 297 294 292 289 288 304 295 281 276 269 264 258 256 256 261 257 256 256 251 237 209 192 203 204 199 201 204 206 198 195 196 192 196 202 206 200 196 185 182 191 199
289 296 299 301 300 297 295 297 312 325 315 298 286 278 273 267 262 260 259 257 253 236 207 201 211 207 200 199 201 200 200 200 193 193 195 199 201 198 192 190 190 193 202
297 297 301 295 293 288 282 283 288 298 314 321 315 297 294 285 273 267 263 257 240 233 211 208 211 203 197 199 199 197 193 190 193 197 194 198 201 194 193 197 195 196 202
303 295 292 291 291 289 287 289 293 297 302 311 325 327 324 329 326 308 298 204 214 222 223 217 209 199 196 195 193 190 190 196 197 196 198 200 197 187 198 202 200 204 204
299 307 310 304 306 309 310 304 301 303 306 308 309 313 325 351 0 343 344 278 229 239 232 215 210 200 192 189 187 185 187 196 198 200 200 199 197 190 196 201 202 200 207
308 316 327 330 322 309 305 303 302 300 300 305 307 310 317 346 342 337 333 313 272 252 240 223 208 197 191 184 184 185 189 199 203 201 200 195 188 191 195 196 200 199 194
312 314 318 322 322 323 325 324 327 322 318 317 325 336 339 5 12 349 328 313 309 294 270 237 222 211 204 197 190 190 194 200 202 199 198 193 188 188 187 188 191 190 185
317 324 330 328 333 339 353 350 338 329 327 327 332 343 350 358 355 342 323 316 315 311 303 268 231 227 207 202 198 196 199 206 206 196 188 190 191 192 190 191 191 189 194
307 316 322 328 339 344 341 340 342 341 341 339 341 346 349 347 339 328 319 317 315 312 305 287 239 212 218 234 223 212 211 211 202 194 184 183 190 194 189 185 188 191 194
337 331 325 317 318 317 319 325 331 333 336 333 329 332 335 334 329 324 323 319 317 320 317 304 276 244 224 229 235 230 225 229 228 197 176 176 182 188 185 180 180 181 185
346 322 312 307 304 298 298 306 314 320 320 319 322 325 322 317 314 315 319 325 332 330 324 317 300 277 266 245 233 233 241 236 226 218 186 171 177 186 183 182 181 179 179